Probability
6 3 0 3 3 3 0 3 0 0 0 0 3 3 3 3 3 3 3 3 3 0 0 0 0 0 0 0 0 0 0 0 0 0 0 0 0 0 0 0 0 0 0
0 0 0 0 0 0 0 0 0 0 0 0 0 0 3 3 3 3 3 0 0 0 0 0 0 0 0 0 0 0 0 0 0 0 0 0 0 0 0 0 0 0 0
0 0 0 0 0 0 0 0 0 0 0 0 0 0 0 0 0 0 0 0 0 0 0 0 0 0 0 0 0 0 0 0 0 0 0 0 0 0 0 0 0 0 0
0 0 0 0 0 0 0 0 0 0 0 0 0 0 0 0 0 0 0 0 0 0 0 0 0 0 0 0 0 0 0 0 0 0 0 0 0 0 0 0 0 0 0
0 0 0 0 0 0 0 0 0 0 0 0 0 0 0 0 0 0 0 0 0 0 0 0 0 0 0 0 0 0 0 0 0 0 0 0 0 0 0 0 0 0 0
0 0 0 0 0 0 0 0 0 0 0 0 0 0 0 0 0 0 0 0 0 0 0 0 0 0 0 0 0 0 0 0 0 0 0 0 0 0 0 0 0 0 0
0 0 0 0 0 0 0 0 0 0 0 0 0 0 0 0 0 0 0 0 0 0 0 0 0 0 0 0 0 0 0 0 0 0 0 0 0 0 0 0 0 0 0
0 0 0 0 0 0 0 0 0 0 0 0 0 0 0 0 0 0 0 0 0 0 0 0 0 0 0 0 0 0 0 0 0 0 0 0 0 0 0 0 0 0 0
0 0 0 0 0 0 0 0 0 0 0 0 0 0 0 0 0 0 0 0 0 0 0 0 0 0 0 0 0 0 0 0 0 0 0 0 0 0 0 0 0 0 0
0 0 0 0 0 0 0 0 0 0 0 0 0 0 0 0 0 0 0 0 0 0 0 0 0 0 0 0 0 0 0 0 0 0 0 0 0 0 0 0 0 0 0
0 0 0 0 0 0 0 0 0 0 0 0 0 0 0 0 0 0 0 0 0 0 0 0 0 0 0 0 0 0 0 0 0 0 0 0 0 0 0 0 0 0 0
0 0 0 0 0 0 0 0 0 0 0 0 0 0 0 0 0 0 0 0 0 0 0 0 0 0 0 0 0 0 0 0 0 0 0 0 0 0 0 0 0 0 0
0 0 0 0 0 0 0 0 0 0 0 0 0 0 0 0 0 0 0 0 0 0 0 0 0 0 0 0 0 0 0 0 0 0 0 0 0 0 0 0 0 0 0
0 0 0 0 0 0 0 0 0 0 0 0 0 0 0 0 0 0 0 0 0 0 0 0 0 0 0 0 0 0 0 0 0 0 0 0 0 0 0 0 0 0 0
0 0 0 0 0 0 0 0 0 0 0 0 0 0 0 0 0 0 0 0 0 0 0 0 0 0 0 0 0 0 0 0 0 0 0 0 0 0 0 0 0 0 0
0 0 0 0 0 0 0 0 0 0 0 0 0 0 0 0 0 0 0 0 0 0 0 0 0 0 0 0 0 0 0 0 0 0 0 0 0 0 0 0 0 0 0
0 0 0 0 0 0 0 0 0 0 0 0 0 0 0 0 0 0 0 0 0 0 0 0 0 0 0 0 0 0 0 0 0 0 0 0 0 0 0 0 0 0 0
0 0 0 0 0 0 0 0 0 0 0 0 0 0 0 0 0 0 0 0 0 0 0 0 0 0 0 0 0 0 0 0 0 0 0 0 0 0 0 0 0 0 0
0 0 0 0 0 0 0 0 0 0 0 0 0 0 0 0 0 0 0 0 0 0 0 0 0 0 0 0 0 0 0 0 0 0 0 0 0 0 0 0 0 0 0
0 0 0 0 0 0 0 0 0 0 0 0 0 0 0 0 0 0 0 0 0 0 0 0 0 0 0 0 0 0 0 0 0 0 0 0 0 0 0 0 0 0 0
0 0 0 0 0 0 0 0 0 0 0 0 0 0 0 0 0 0 0 0 0 0 0 0 0 0 0 0 0 0 0 0 0 0 0 0 0 0 0 0 0 0 0
0 0 0 0 0 0 0 0 0 0 0 0 0 0 0 0 0 0 0 0 0 0 0 0 0 0 0 0 0 0 0 0 0 0 0 0 0 0 0 0 0 0 0
0 0 0 0 0 0 0 0 0 0 0 0 0 0 0 0 0 0 0 0 0 0 0 0 0 0 0 0 0 0 0 0 0 0 0 0 0 0 0 0 0 0 0
0 0 0 0 0 0 0 0 0 0 0 0 0 0 0 0 0 0 0 0 0 0 0 0 0 0 0 0 0 0 0 0 0 0 0 0 0 0 0 0 0 0 0
0 0 0 0 0 0 0 0 0 0 0 0 0 0 0 0 0 0 0 0 0 0 0 0 0 0 0 0 0 0 0 0 0 0 0 0 0 0 0 0 0 0 0
0 0 0 0 0 0 0 0 0 0 0 0 0 0 0 0 0 0 0 0 0 0 0 0 0 0 0 0 0 0 0 0 0 0 0 0 0 0 0 0 0 0 0
Height
5760 5760 5761 5761 5761 5761 5762 5763 5764 5765 5766 5768 5769 5771 5773 5775 5776 5777 5779 5781 5783 5785 5787 5789 5791 5792 5793 5794 5795 5796 5796 5797 5797 5797 5796 5796 5795 5794 5792 5791 5789 5787 5785
5753 5753 5753 5754 5754 5754 5755 5756 5757 5759 5761 5762 5764 5766 5767 5769 5770 5772 5773 5775 5777 5779 5781 5783 5784 5785 5787 5788 5789 5789 5790 5790 5790 5790 5789 5788 5788 5786 5785 5783 5781 5779 5777
5746 5746 5746 5747 5747 5748 5749 5750 5751 5753 5755 5757 5759 5761 5762 5764 5765 5767 5768 5770 5772 5774 5776 5777 5778 5780 5781 5782 5782 5783 5783 5783 5783 5783 5782 5782 5780 5779 5777 5775 5773 5771 5768
5739 5739 5739 5740 5740 5741 5743 5744 5746 5748 5750 5752 5754 5755 5757 5759 5760 5762 5763 5765 5767 5768 5770 5771 5772 5774 5775 5776 5776 5777 5777 5777 5777 5776 5775 5774 5773 5771 5769 5767 5765 5763 5760
5732 5732 5733 5733 5734 5736 5737 5739 5741 5743 5745 5747 5749 5750 5752 5753 5755 5756 5758 5760 5762 5763 5764 5765 5767 5768 5769 5770 5771 5771 5771 5771 5770 5769 5768 5767 5765 5763 5762 5759 5757 5755 5752
5725 5726 5726 5728 5729 5730 5732 5734 5736 5738 5740 5742 5744 5745 5747 5748 5750 5752 5753 5755 5756 5758 5759 5760 5761 5762 5763 5764 5765 5765 5765 5764 5763 5762 5761 5759 5758 5756 5754 5752 5749 5747 5745
5719 5720 5721 5722 5724 5725 5727 5730 5732 5734 5736 5737 5739 5741 5742 5744 5745 5747 5749 5750 5752 5753 5754 5755 5756 5757 5758 5758 5758 5758 5758 5757 5756 5755 5754 5752 5751 5749 5747 5744 5742 5740 5737
5713 5714 5716 5717 5719 5721 5723 5726 5728 5730 5732 5734 5735 5737 5738 5740 5741 5743 5744 5746 5747 5748 5750 5750 5751 5752 5752 5753 5752 5752 5751 5750 5749 5748 5747 5745 5743 5741 5739 5737 5735 5733 5731
5708 5710 5711 5713 5715 5717 5719 5722 5724 5726 5728 5730 5731 5733 5734 5736 5737 5739 5741 5742 5743 5744 5745 5746 5746 5747 5747 5747 5747 5746 5745 5744 5743 5741 5740 5738 5736 5735 5733 5731 5729 5727 5725
5704 5706 5708 5710 5712 5714 5716 5718 5720 5722 5725 5726 5728 5729 5730 5732 5734 5735 5737 5738 5739 5740 5741 5741 5741 5741 5741 5741 5741 5740 5739 5738 5737 5735 5734 5732 5730 5728 5726 5725 5723 5721 5719
5702 5703 5705 5707 5709 5711 5713 5716 5718 5720 5722 5723 5725 5726 5728 5729 5730 5732 5733 5734 5735 5735 5736 5736 5736 5736 5736 5736 5735 5734 5733 5732 5731 5729 5728 5726 5724 5723 5721 5719 5718 5716 5714
5700 5701 5703 5705 5707 5709 5711 5713 5716 5718 5719 5721 5723 5724 5725 5726 5727 5728 5730 5730 5731 5731 5732 5731 5731 5731 5731 5730 5730 5729 5728 5726 5725 5724 5722 5721 5720 5718 5717 5715 5713 5711 5709
5699 5700 5702 5704 5706 5708 5710 5712 5714 5716 5718 5719 5721 5722 5723 5724 5725 5726 5726 5727 5727 5728 5727 5727 5727 5727 5726 5726 5725 5724 5723 5722 5721 5720 5718 5717 5716 5714 5713 5711 5709 5707 5706
5698 5700 5701 5703 5705 5707 5709 5711 5713 5715 5716 5718 5719 5720 5721 5722 5723 5723 5724 5724 5724 5724 5724 5724 5723 5723 5723 5722 5721 5721 5720 5719 5717 5716 5715 5714 5712 5711 5709 5707 5706 5704 5703
5698 5700 5702 5704 5706 5708 5709 5711 5713 5714 5716 5717 5718 5719 5720 5720 5721 5721 5721 5722 5722 5721 5721 5721 5720 5720 5720 5719 5718 5718 5717 5716 5715 5713 5712 5711 5709 5708 5706 5704 5703 5702 5700
5700 5701 5703 5705 5706 5708 5710 5711 5713 5714 5716 5717 5718 5718 5719 5719 5719 5720 5720 5720 5720 5719 5719 5719 5718 5718 5718 5717 5716 5716 5715 5714 5712 5711 5710 5708 5707 5705 5704 5702 5701 5700 5699
5701 5702 5704 5706 5708 5709 5711 5712 5714 5715 5716 5717 5717 5718 5718 5719 5719 5719 5719 5719 5718 5718 5718 5717 5717 5717 5716 5716 5715 5714 5713 5712 5711 5710 5708 5707 5705 5704 5703 5701 5700 5699 5698
5703 5705 5706 5707 5709 5711 5712 5713 5715 5716 5717 5717 5718 5718 5719 5719 5719 5719 5719 5719 5718 5718 5717 5717 5716 5716 5716 5715 5714 5714 5713 5711 5710 5709 5708 5706 5705 5704 5702 5701 5700 5699 5697
5706 5707 5709 5710 5711 5713 5714 5715 5716 5717 5718 5719 5719 5720 5720 5720 5720 5720 5720 5720 5719 5719 5718 5718 5717 5717 5716 5715 5715 5714 5712 5711 5710 5709 5708 5706 5705 5704 5702 5701 5700 5698 5697
5709 5710 5712 5713 5714 5715 5716 5718 5719 5720 5721 5721 5722 5722 5723 5722 5722 5722 5722 5722 5721 5721 5720 5720 5719 5718 5717 5716 5715 5714 5713 5712 5711 5710 5708 5707 5706 5704 5703 5702 5700 5699 5697
5712 5713 5715 5716 5717 5718 5719 5721 5722 5723 5723 5724 5725 5725 5725 5725 5725 5725 5724 5724 5724 5723 5723 5722 5721 5720 5719 5718 5717 5716 5715 5713 5712 5711 5710 5708 5707 5705 5704 5702 5701 5699 5697
5715 5717 5718 5719 5721 5722 5723 5724 5725 5726 5726 5727 5728 5728 5728 5728 5728 5728 5727 5727 5727 5726 5725 5724 5724 5722 5721 5720 5719 5717 5716 5715 5714 5712 5711 5709 5708 5706 5704 5703 5701 5699 5697
5719 5720 5722 5723 5724 5725 5727 5728 5729 5729 5730 5730 5731 5731 5732 5732 5731 5731 5730 5730 5729 5729 5728 5727 5726 5725 5723 5722 5721 5719 5718 5716 5715 5713 5712 5710 5708 5707 5705 5703 5701 5698 5696
5724 5725 5726 5727 5728 5729 5730 5732 5732 5733 5734 5734 5734 5735 5735 5735 5734 5734 5734 5733 5732 5732 5731 5730 5728 5727 5726 5724 5723 5721 5719 5718 5716 5715 5713 5711 5709 5707 5704 5702 5700 5698 5695
5729 5730 5730 5731 5732 5733 5735 5735 5736 5737 5737 5738 5738 5738 5738 5738 5738 5737 5737 5736 5735 5734 5733 5732 5731 5729 5728 5726 5725 5723 5721 5719 5717 5715 5713 5711 5709 5707 5704 5702 5699 5696 5694
5734 5734 5735 5736 5737 5738 5739 5739 5740 5740 5741 5741 5741 5741 5741 5741 5741 5740 5739 5739 5738 5737 5736 5734 5733 5731 5730 5728 5726 5725 5723 5721 5719 5716 5714 5712 5709 5707 5704 5701 5698 5695 5692
Wind_Speed
25 26 27 28 27 27 26 27 28 27 27 27 27 28 27 26 26 26 26 27 29 29 29 30 31 30 29 29 30 30 31 32 32 31 31 31 31 31 31 32 33 34 35
24 25 25 26 26 25 25 25 26 26 25 25 26 26 26 25 25 25 26 25 26 27 28 29 29 29 28 29 29 29 29 30 30 30 29 30 30 31 33 33 34 35 35
24 24 25 25 24 24 24 23 24 24 24 24 25 25 25 25 25 25 25 25 25 26 26 26 26 26 27 27 28 27 27 28 28 28 29 30 31 32 33 33 34 35 35
24 24 24 23 23 22 22 22 23 23 23 23 24 25 25 24 24 24 24 24 25 25 25 26 26 25 26 26 26 26 27 27 28 29 30 31 32 33 33 34 34 35 35
23 23 22 22 21 21 21 21 21 21 20 21 23 23 24 24 23 23 23 23 23 24 25 25 24 24 24 25 25 26 27 27 29 30 30 31 32 32 33 34 34 33 33
22 22 21 20 19 20 20 20 20 20 20 20 20 21 21 22 22 22 21 22 22 21 21 22 22 22 23 24 25 26 28 29 30 30 30 31 31 31 32 32 31 31 30
20 20 20 19 19 19 20 21 20 20 20 20 19 20 21 20 19 19 18 19 19 19 20 21 22 22 23 24 25 27 28 28 29 29 30 30 30 30 30 29 28 28 28
17 17 18 18 17 17 17 18 18 18 18 18 19 19 19 18 18 19 18 18 18 19 20 20 21 21 22 24 25 25 26 27 27 28 28 28 28 27 26 26 26 26 26
14 15 15 15 15 15 16 16 18 18 18 19 19 18 18 17 17 17 17 17 18 19 20 20 20 21 22 22 23 24 25 25 26 26 25 25 25 25 25 25 25 24 24
12 13 14 13 13 14 15 15 15 15 16 16 16 16 16 16 15 16 16 17 17 18 18 19 19 20 21 22 23 23 23 23 23 23 23 23 23 22 22 22 22 21 21
9 10 11 12 12 13 13 14 13 13 12 13 12 12 13 14 15 15 15 16 16 17 18 18 18 19 20 21 21 21 21 22 21 21 21 21 20 20 19 19 19 19 19
7 8 10 10 11 11 11 12 12 11 10 10 11 11 11 12 12 13 13 14 15 15 16 16 17 17 18 18 19 18 18 18 18 18 18 17 17 17 17 17 17 17 17
6 7 9 9 9 8 9 9 9 9 9 8 8 8 8 8 8 9 10 11 11 12 12 13 14 14 15 15 15 15 15 14 14 14 14 14 15 15 15 15 15 15 15
6 7 8 8 8 8 8 7 7 7 7 7 6 5 5 6 6 7 8 8 9 10 11 12 12 12 12 12 12 12 12 12 12 13 13 13 14 14 14 14 13 13 12
6 8 8 8 8 7 7 7 6 5 5 5 5 4 4 5 5 6 6 7 8 8 9 9 9 9 9 9 9 9 9 10 11 11 11 12 12 12 12 12 11 10 10
8 8 8 9 8 8 7 7 6 5 4 3 3 3 2 2 3 3 4 4 5 5 6 6 6 6 6 7 7 8 8 9 9 9 10 10 10 10 9 9 9 8 8
9 9 9 9 9 8 8 7 6 5 4 3 2 1 1 1 1 1 2 2 3 3 3 4 4 4 4 5 5 6 6 7 7 8 8 8 7 7 7 7 6 6 7
10 10 10 10 10 9 8 7 7 6 6 5 5 5 5 4 4 4 4 4 4 4 4 3 3 3 4 4 4 5 6 6 6 6 6 6 6 6 6 6 6 6 7
12 12 12 12 11 10 10 9 9 9 8 8 8 8 8 8 8 8 8 7 7 7 7 6 6 5 5 5 5 5 6 6 5 5 5 6 6 6 6 6 6 6 6
13 13 12 12 12 12 11 11 11 10 10 10 10 10 10 10 10 10 10 10 10 9 9 8 8 8 8 7 7 7 7 7 6 6 6 6 6 6 6 6 6 6 7
13 13 13 13 13 13 13 12 12 12 12 12 12 12 11 11 12 11 11 11 11 11 11 10 10 9 9 9 8 8 8 7 7 7 7 7 7 7 7 7 7 7 8
15 15 14 14 14 13 14 14 14 13 13 13 13 12 12 12 12 12 12 11 11 11 11 11 10 10 9 9 9 9 8 8 8 8 7 7 7 7 7 8 8 9 9
16 15 15 15 14 14 15 15 15 14 14 14 13 13 13 13 12 12 12 12 11 11 11 10 10 10 10 10 9 9 9 8 8 8 8 8 8 8 9 9 9 10 11
16 16 16 16 15 16 16 15 15 15 14 14 14 13 13 12 12 12 12 12 12 11 11 11 11 11 11 10 10 10 10 9 9 9 9 9 10 10 10 10 11 11 12
17 17 17 17 17 16 16 16 15 15 15 14 14 13 13 12 12 12 12 12 12 11 11 11 11 11 11 11 11 11 10 10 10 10 11 11 11 11 12 12 13 14 14
17 17 17 17 17 16 16 15 15 15 14 14 13 13 13 12 12 12 11 11 11 11 11 10 10 11 11 11 11 11 11 11 11 12 12 12 13 13 14 15 15 16 16
Wind_Direction
271 268 264 263 262 259 257 255 253 251 250 248 246 245 245 242 242 242 242 240 238 239 240 240 241 243 246 249 251 254 257 260 261 264 268 270 273 275 278 280 282 285 286
272 270 265 262 260 259 257 254 250 248 247 246 246 245 244 245 243 243 242 242 240 239 239 241 243 246 249 252 254 257 259 261 263 266 270 272 274 278 280 282 283 286 288
272 268 265 261 259 257 256 251 247 244 245 245 244 243 243 245 245 245 243 242 241 242 243 244 247 249 252 254 256 258 259 262 265 269 272 274 277 280 281 283 286 288 290
271 267 263 260 257 254 252 247 245 244 244 243 243 244 243 244 244 244 245 245 244 245 247 249 252 253 253 254 256 259 262 265 268 272 275 277 278 281 284 286 289 291 294
269 266 261 256 251 248 245 243 244 243 241 241 244 244 243 243 243 243 244 245 246 248 249 251 252 253 255 257 260 264 266 268 271 275 278 280 282 285 286 289 291 293 295
265 261 255 253 248 243 241 238 240 240 241 242 247 244 244 245 244 244 245 245 247 249 249 251 253 254 256 259 262 265 268 271 274 277 280 283 284 286 288 290 292 293 295
260 256 252 251 246 239 236 235 237 240 241 242 244 243 245 245 244 242 241 243 246 251 253 255 256 258 260 264 267 270 272 275 278 281 283 285 287 288 289 290 292 293 294
255 250 248 246 242 233 231 234 236 241 243 240 240 244 246 247 246 241 239 244 246 251 253 257 258 260 264 267 269 274 277 280 282 284 286 287 288 289 290 291 291 293 294
252 240 240 239 235 230 228 232 236 240 243 244 244 243 244 245 245 242 241 246 250 253 257 260 262 266 272 276 279 280 281 283 285 288 289 290 290 290 290 291 292 293 294
244 235 232 228 226 225 225 231 237 238 239 245 246 243 241 242 244 245 248 255 259 263 266 268 270 274 278 280 282 283 284 287 289 290 291 291 292 292 292 293 294 295 296
231 223 220 223 221 221 219 225 230 233 234 237 237 235 240 243 249 254 258 259 263 267 271 274 276 279 281 282 282 284 287 289 290 290 291 292 293 294 294 295 296 297 298
215 211 213 213 214 212 214 213 218 224 225 229 236 238 245 249 250 253 257 262 267 271 274 277 280 282 284 284 286 288 290 291 291 292 293 295 296 296 297 299 299 299 299
197 197 197 199 202 205 201 200 210 209 208 218 229 235 240 245 249 254 261 267 270 274 277 281 284 286 287 288 290 292 293 294 295 297 298 298 299 300 301 302 302 301 300
173 175 177 179 182 183 184 189 194 199 205 213 219 229 238 249 257 264 271 275 280 282 284 286 287 288 290 291 293 294 296 298 299 301 301 301 302 303 303 304 305 305 305
153 163 165 164 166 168 168 171 177 184 194 206 217 235 246 258 269 278 284 286 289 291 292 293 294 297 300 302 303 303 304 305 306 306 306 306 306 307 307 308 308 309 310
143 149 156 158 159 158 157 160 160 162 170 183 196 210 236 268 278 285 292 297 297 297 300 304 307 309 309 309 310 311 312 312 312 312 313 313 313 314 315 315 315 315 317
135 139 142 145 146 145 143 141 139 138 139 142 142 133 105 42 2 349 340 328 325 326 325 324 324 324 324 324 325 326 327 327 327 327 326 326 328 330 331 331 330 329 328
128 130 131 133 135 133 129 125 121 120 116 110 103 97 91 81 72 68 63 55 47 42 39 36 29 18 8 360 353 349 348 348 349 350 352 354 354 351 349 347 344 340 338
123 123 125 124 124 123 121 117 115 113 109 103 99 94 89 84 82 78 74 71 68 67 65 61 56 47 39 31 23 17 14 14 15 15 15 13 10 7 4 360 354 349 346
119 119 119 119 118 118 117 114 112 110 107 104 100 96 91 88 85 83 81 79 76 73 69 67 63 59 55 51 46 43 40 38 34 30 28 25 22 17 10 4 360 356 353
117 118 118 117 116 115 114 113 111 109 107 104 101 97 93 90 89 86 83 81 79 76 73 69 66 63 60 57 52 48 45 42 39 36 32 28 23 18 13 8 2 357 353
116 117 116 115 115 115 113 112 110 109 107 105 102 99 95 92 88 85 83 81 79 75 71 68 65 61 58 54 51 48 46 43 39 35 30 24 18 12 7 1 356 351 348
113 114 114 115 116 115 114 112 110 109 107 105 102 100 96 92 88 85 82 80 77 74 70 65 60 57 54 52 50 46 43 39 34 27 21 16 11 5 359 353 348 345 342
111 112 113 114 115 115 114 112 110 108 106 104 102 100 96 92 88 84 81 78 76 72 68 63 59 56 54 51 47 43 38 33 27 22 16 12 7 2 358 354 349 345 341
112 112 112 112 113 113 113 111 109 108 106 104 101 99 95 91 87 83 80 77 74 70 66 62 58 54 50 45 40 36 31 26 22 18 14 10 6 2 358 354 349 346 342
112 112 111 111 112 112 112 111 109 107 105 102 100 97 93 90 86 83 79 74 70 65 61 56 51 47 42 37 32 27 22 18 15 11 8 4 0 356 353 349 346 344 342